Location: El Banqueo
(10.5289°N, 67.0444°W)
Time: 15:34:32
(UTC+00:00)

IGS 5A - Pass Details

Date: 18 April 2024
Orbit: 572 x 575 km, 97.4° (Epoch: 06 April)

Event Time Altitude Azimuth Distance (km) Brightness Sun altitude
Rises 23:23:07 0° 176° (S) 2,770 6.7 -11.3°
Reaches altitude 10° 23:25:17 10° 179° (S) 1,872 5.9 -11.9°
Maximum altitude 23:29:17 59° 259° (W) 662 4.0 -12.8°
Drops below altitude 10° 23:33:17 10° 339° (NNW) 1,870 6.5 -13.8°
Sets 23:35:27 0° 343° (NNW) 2,767 7.4 -14.3°
